Tracking 19794 objects as of 22-Jul-2019
HD Live streaming from Space Station
objects crossing your sky now

FENGYUN 1C DEB

Track FENGYUN 1C DEB now!
10-day predictions


NORAD ID: 37060
Int'l Code: 1999-025EEU
Perigee: 850.0 km
Apogee: 967.6 km
Inclination: 99.3 °
Period: 103.0 minutes
Semi major axis: 7279 km
RCS: 0.0093 m2 (small)
Launch date: May 10, 1999
Source: People's Republic of China (PRC)
Launch site: Taiyaun Space Center, China (TSC)

Note: This is SATELLITE DEBRIS
aabbcc
Your satellite tracking list
Your tracking list is empty




NASA's NSSDC Master Catalog

Two Line Element Set (TLE):
1 37060U 99025EEU 19202.21359971 -.00000041  00000-0  42939-5 0  9990
2 37060  99.3311 210.9935 0080783 267.5934  91.5978 13.97740145593697
Source of the keplerian elements: AFSPC